This is the latest recevied weather packets stored in our database for station/object KD2ZLA. If no packets are shown the sender has not sent any weather packets the latest 10 day(s).
| Time | Temp. | Humidity | Pressure | Rain* | Wind** | Luminosity | Snow |
|---|---|---|---|---|---|---|---|
| 1777978986 | 15.56° C | 77% | 1000.9 hPa | 0 mm | - | 59 W/m² | - |
| 1777978682 | 15.56° C | 77% | 1001.1 hPa | 0 mm | - | 36 W/m² | - |
| 1777978377 | 15.56° C | 76% | 1001.2 hPa | 0.51 mm | - | 24 W/m² | - |
| 1777978074 | 15.56° C | 76% | 1001 hPa | 0.51 mm | - | 10 W/m² | - |
| 1777977772 | 16.11° C | 72% | 1000.8 hPa | 0 mm | - | 9 W/m² | - |
| 1777977468 | 16.11° C | 69% | 1001.3 hPa | 0 mm | - | 8 W/m² | - |
| 1777977166 | 16.67° C | 69% | 1001.2 hPa | 0 mm | - | 7 W/m² | - |
| 1777976863 | 16.11° C | 69% | 1001.1 hPa | 0 mm | - | 4 W/m² | - |
| 1777976561 | 16.67° C | 68% | 1001 hPa | 0.51 mm | - | 3 W/m² | - |
| 1777976259 | 16.67° C | 67% | 1000.9 hPa | 0.51 mm | - | 3 W/m² | - |
| 1777975955 | 16.67° C | 63% | 1000.8 hPa | 0 mm | - | 3 W/m² | - |
| 1777975652 | 16.67° C | 62% | 1000.9 hPa | 0 mm | - | 3 W/m² | - |
| 1777975349 | 16.67° C | 62% | 1000.9 hPa | 0 mm | - | 4 W/m² | - |
| 1777975044 | 16.11° C | 62% | 1000.8 hPa | 0 mm | - | 3 W/m² | - |
| 1777974742 | 16.67° C | 61% | 1000.8 hPa | 0 mm | - | 1 W/m² | - |
| 1777974437 | 16.11° C | 61% | 1000.9 hPa | 0 mm | - | 1 W/m² | - |
| 1777974134 | 16.11° C | 62% | 1000.9 hPa | 0 mm | - | 0 W/m² | - |
| 1777973830 | 16.11° C | 61% | 1001 hPa | 0 mm | - | 0 W/m² | - |
| 1777973528 | 16.11° C | 62% | 1000.6 hPa | 0 mm | - | 0 W/m² | - |
| 1777973224 | 16.11° C | 62% | 1000.6 hPa | 0 mm | - | 0 W/m² | - |
| 1777972923 | 16.11° C | 62% | 1000.8 hPa | 0 mm | - | 0 W/m² | - |
| 1777972620 | 16.11° C | 62% | 1000.8 hPa | 0 mm | - | 0 W/m² | - |
| 1777972318 | 16.11° C | 62% | 1000.9 hPa | 0 mm | - | 0 W/m² | - |
| 1777972015 | 15.56° C | 63% | 1000.9 hPa | 0 mm | - | 0 W/m² | - |
| 1777971714 | 15.56° C | 64% | 1001 hPa | 0 mm | - | 0 W/m² | - |
* Rain latest hour (hover to see other rain measurements)
** Current wind speed in m/s (hover to see current wind gust speed)